Weather History for Cairo, IL

Change the Weather History Date:

Saturday, February 9, 2013

  Actual Average Record
Temperature  
Mean Temperature 40 °F -  
Max Temperature 48 °F 40 °F 73 °F (1965)
Min Temperature 33 °F 25 °F 3 °F (1979)
Degree Days  
Heating Degree Days 24    
Moisture  
Dew Point 31 °F    
Average Humidity 68    
Maximum Humidity 81    
Minimum Humidity 53    
Precipitation  
Precipitation 0.00 in - - ()
Sea Level Pressure  
Sea Level Pressure 30.26 in    
Wind  
Wind Speed 8 mph (East)    
Max Wind Speed 13 mph    
Max Gust Speed 16 mph    
Visibility 10 miles    
Events      
Averages and records for this station are not official NWS values.
T = Trace of Precipitation, MM = Missing Value Source: NWS Daily Summary

Daily Weather History Graph

Daily Weather History Graph

Search for Another Location

Airport:

Trip Planner

Search our weather history database for the weather conditions in past years. The results will help you decide how hot, cold, wet, or windy it might be!

Date:

Astronomy

Feb. 09, 2013 Rise Set
Actual Time 6:51 AM CST 5:30 PM CST
Civil Twilight 6:24 AM CST 5:57 PM CST
Nautical Twilight 5:54 AM CST 6:28 PM CST
Astronomical Twilight 5:23 AM CST 6:58 PM CST
Moon 6:03 AM CST (2/9) 5:12 PM CST (2/9)
Length of Visible Light 11h 32m
Length of Day
10h 39m
Waning Crescent, 0% of the Moon is Illuminated
Feb 9
Waning Crescent
Feb 10
New
Feb 17
First Quarter
Feb 25
Full
Mar 4
Last Quarter

Hourly Weather History & Observations

Time (CST) Temp. Windchill Dew Point Humidity Pressure Visibility Wind Dir Wind Speed Gust Speed Precip Events Conditions
12:15 AM 35.6 °F 28.6 °F 28.4 °F 75% 30.36 in 10.0 mi NE 9.2 mph - N/A   Overcast
12:35 AM 35.6 °F 27.1 °F 28.4 °F 75% 30.35 in 10.0 mi NE 12.7 mph - N/A   Overcast
12:55 AM 35.6 °F 29.2 °F 28.4 °F 75% 30.35 in 10.0 mi East 8.1 mph - N/A   Overcast
1:15 AM 35.6 °F 29.2 °F 28.4 °F 75% 30.35 in 10.0 mi ENE 8.1 mph 16.1 mph N/A   Overcast
1:35 AM 35.6 °F 28.0 °F 28.4 °F 75% 30.34 in 10.0 mi ENE 10.4 mph - N/A   Overcast
1:55 AM 35.6 °F 28.6 °F 28.4 °F 75% 30.34 in 10.0 mi ENE 9.2 mph - N/A   Overcast
2:15 AM 35.6 °F 28.0 °F 28.4 °F 75% 30.35 in 10.0 mi ENE 10.4 mph - N/A   Overcast
2:35 AM 35.6 °F 27.5 °F 28.4 °F 75% 30.35 in 10.0 mi ENE 11.5 mph - N/A   Overcast
2:55 AM 35.6 °F 27.5 °F 28.4 °F 75% 30.34 in 10.0 mi NE 11.5 mph - N/A   Overcast
3:15 AM 33.8 °F 26.4 °F 28.4 °F 81% 30.35 in 10.0 mi ENE 9.2 mph - N/A   Overcast
3:35 AM 33.8 °F 28.6 °F 28.4 °F 81% 30.36 in 10.0 mi East 5.8 mph - N/A   Overcast
3:55 AM 35.6 °F 29.2 °F 28.4 °F 75% 30.36 in 10.0 mi NE 8.1 mph - N/A   Overcast
4:15 AM 33.8 °F 27.0 °F 28.4 °F 81% 30.36 in 10.0 mi NE 8.1 mph - N/A   Overcast
4:35 AM 33.8 °F 26.4 °F 28.4 °F 81% 30.36 in 10.0 mi East 9.2 mph - N/A   Overcast
4:55 AM 33.8 °F 26.4 °F 28.4 °F 81% 30.36 in 10.0 mi NE 9.2 mph - N/A   Overcast
5:15 AM 33.8 °F 27.0 °F 28.4 °F 81% 30.36 in 10.0 mi ENE 8.1 mph - N/A   Overcast
5:35 AM 33.8 °F 27.0 °F 28.4 °F 81% 30.36 in 10.0 mi East 8.1 mph - N/A   Overcast
5:55 AM 33.8 °F 25.3 °F 28.4 °F 81% 30.36 in 10.0 mi ENE 11.5 mph - N/A   Overcast
6:15 AM 33.8 °F 25.3 °F 26.6 °F 75% 30.36 in 10.0 mi ENE 11.5 mph - N/A   Overcast
6:35 AM 33.8 °F 25.3 °F 26.6 °F 75% 30.36 in 10.0 mi ENE 11.5 mph - N/A   Overcast
6:55 AM 33.8 °F 26.4 °F 26.6 °F 75% 30.36 in 10.0 mi ENE 9.2 mph - N/A   Overcast
7:15 AM 33.8 °F 24.8 °F 26.6 °F 75% 30.36 in 10.0 mi East 12.7 mph 16.1 mph N/A   Overcast
7:35 AM 33.8 °F 25.3 °F 28.4 °F 81% 30.36 in 10.0 mi East 11.5 mph - N/A   Overcast
7:55 AM 33.8 °F 27.0 °F 28.4 °F 81% 30.36 in 10.0 mi ENE 8.1 mph - N/A   Overcast
8:15 AM 35.6 °F 28.0 °F 28.4 °F 75% 30.38 in 10.0 mi ESE 10.4 mph - N/A   Overcast
8:35 AM 35.6 °F 28.6 °F 28.4 °F 75% 30.38 in 10.0 mi East 9.2 mph - N/A   Overcast
8:55 AM 35.6 °F 29.9 °F 28.4 °F 75% 30.37 in 10.0 mi East 6.9 mph - N/A   Overcast
9:15 AM 35.6 °F 28.6 °F 28.4 °F 75% 30.37 in 10.0 mi East 9.2 mph - N/A   Overcast
9:35 AM 37.4 °F 32.1 °F 28.4 °F 70% 30.36 in 10.0 mi East 6.9 mph - N/A   Overcast
9:55 AM 37.4 °F 32.1 °F 28.4 °F 70% 30.36 in 10.0 mi ENE 6.9 mph - N/A   Overcast
10:15 AM 37.4 °F 31.4 °F 30.2 °F 75% 30.35 in 10.0 mi East 8.1 mph - N/A   Overcast
10:35 AM 39.2 °F 34.2 °F 30.2 °F 70% 30.35 in 10.0 mi ENE 6.9 mph - N/A   Mostly Cloudy
10:55 AM 41.0 °F 37.1 °F 30.2 °F 65% 30.36 in 10.0 mi ESE 5.8 mph - N/A   Scattered Clouds
11:15 AM 42.8 °F 40.1 °F 30.2 °F 61% 30.34 in 10.0 mi ESE 4.6 mph - N/A   Scattered Clouds
11:35 AM 42.8 °F 39.3 °F 30.2 °F 61% 30.33 in 10.0 mi East 5.8 mph - N/A   Scattered Clouds
11:55 AM 42.8 °F 40.1 °F 30.2 °F 61% 30.32 in 10.0 mi SE 4.6 mph - N/A   Clear
12:15 PM 44.6 °F 42.2 °F 30.2 °F 57% 30.31 in 10.0 mi SE 4.6 mph - N/A   Clear
12:35 PM 44.6 °F - 30.2 °F 57% 30.29 in 10.0 mi Calm Calm - N/A   Clear
12:55 PM 44.6 °F 42.2 °F 30.2 °F 57% 30.28 in 10.0 mi SSE 4.6 mph - N/A   Clear
1:15 PM 44.6 °F 43.1 °F 30.2 °F 57% 30.27 in 10.0 mi ENE 3.5 mph - N/A   Clear
1:35 PM 46.4 °F 43.5 °F 30.2 °F 53% 30.25 in 10.0 mi ESE 5.8 mph - N/A   Clear
1:55 PM 46.4 °F 43.5 °F 30.2 °F 53% 30.24 in 10.0 mi ESE 5.8 mph - N/A   Clear
2:15 PM 48.2 °F - 32.0 °F 54% 30.24 in 10.0 mi Calm Calm - N/A   Clear
2:35 PM 48.2 °F - 32.0 °F 54% 30.22 in 10.0 mi East 5.8 mph - N/A   Clear
2:55 PM 48.2 °F - 32.0 °F 54% 30.21 in 10.0 mi East 6.9 mph - N/A   Clear
3:15 PM 48.2 °F - 32.0 °F 54% 30.20 in 10.0 mi East 6.9 mph - N/A   Clear
3:35 PM 48.2 °F - 32.0 °F 54% 30.19 in 10.0 mi East 8.1 mph - N/A   Clear
3:55 PM 48.2 °F - 32.0 °F 54% 30.19 in 10.0 mi East 6.9 mph - N/A   Clear
4:15 PM 48.2 °F - 32.0 °F 54% 30.19 in 10.0 mi ESE 6.9 mph - N/A   Clear
4:35 PM 48.2 °F - 32.0 °F 54% 30.18 in 10.0 mi East 6.9 mph - N/A   Clear
4:55 PM 48.2 °F - 32.0 °F 54% 30.17 in 10.0 mi East 4.6 mph - N/A   Clear
5:15 PM 46.4 °F 45.2 °F 32.0 °F 57% 30.16 in 10.0 mi East 3.5 mph - N/A   Clear
5:35 PM 46.4 °F 45.2 °F 32.0 °F 57% 30.15 in 10.0 mi East 3.5 mph - N/A   Clear
5:55 PM 44.6 °F 42.2 °F 32.0 °F 61% 30.14 in 10.0 mi East 4.6 mph - N/A   Clear
6:15 PM 44.6 °F 42.2 °F 32.0 °F 61% 30.14 in 10.0 mi East 4.6 mph - N/A   Clear
6:35 PM 44.6 °F 43.1 °F 32.0 °F 61% 30.14 in 10.0 mi SE 3.5 mph - N/A   Clear
6:55 PM 44.6 °F 42.2 °F 32.0 °F 61% 30.13 in 10.0 mi ESE 4.6 mph - N/A   Clear
7:15 PM 46.4 °F 44.3 °F 32.0 °F 57% 30.13 in 10.0 mi East 4.6 mph - N/A   Clear
7:35 PM 46.4 °F - 33.8 °F 62% 30.13 in 10.0 mi Calm Calm - N/A   Scattered Clouds
7:55 PM 44.6 °F - 32.0 °F 61% 30.13 in 10.0 mi Calm Calm - N/A   Mostly Cloudy
8:15 PM 44.6 °F - 33.8 °F 66% 30.14 in 10.0 mi Calm Calm - N/A   Scattered Clouds
8:35 PM 44.6 °F 43.1 °F 33.8 °F 66% 30.13 in 10.0 mi ENE 3.5 mph - N/A   Mostly Cloudy
8:55 PM 44.6 °F 43.1 °F 33.8 °F 66% 30.13 in 10.0 mi NE 3.5 mph - N/A   Mostly Cloudy
9:15 PM 44.6 °F - 33.8 °F 66% 30.12 in 10.0 mi Calm Calm - N/A   Mostly Cloudy
9:35 PM 44.6 °F 43.1 °F 33.8 °F 66% 30.11 in 10.0 mi NE 3.5 mph - N/A   Overcast
9:55 PM 44.6 °F 41.4 °F 35.6 °F 71% 30.10 in 10.0 mi ENE 5.8 mph - N/A   Overcast
10:15 PM 44.6 °F - 35.6 °F 71% 30.10 in 10.0 mi Calm Calm - N/A   Overcast
10:35 PM 44.6 °F 43.1 °F 35.6 °F 71% 30.10 in 10.0 mi NE 3.5 mph - N/A   Overcast
10:55 PM 44.6 °F 42.2 °F 35.6 °F 71% 30.09 in 10.0 mi NE 4.6 mph - N/A   Overcast
11:15 PM 44.6 °F 42.2 °F 35.6 °F 71% 30.08 in 10.0 mi ENE 4.6 mph - N/A   Overcast
11:35 PM 44.6 °F 40.7 °F 35.6 °F 71% 30.06 in 10.0 mi ENE 6.9 mph - N/A   Overcast
11:55 PM 46.4 °F 44.3 °F 35.6 °F 66% 30.05 in 10.0 mi East 4.6 mph - N/A   Mostly Cloudy